Temp
18 18 18 18 18 18 18 19 19 19 19 18 18 18 17 17 17 17 17 17 17 17 17 17 17 17 17 17 17 17 17 17 17 17 17 17 17 17 17 17 17 17 17 17 18 18 18 18 18 18 18 18 19 19 19 19 19 19 18 18 18 18 18 18 16 16 16 16 16 16 16 16 16 16 16 16 16 15 15 15 15 15 15 15 15
18 18 18 18 18 18 18 18 18 18 18 18 18 17 17 17 17 17 17 17 17 17 17 17 17 17 17 17 17 17 17 17 17 17 17 17 17 17 17 17 17 17 17 17 17 17 18 18 18 18 18 18 18 18 19 19 18 18 18 18 18 18 18 18 16 16 16 16 16 16 16 16 16 16 16 16 16 16 16 15 15 15 15 15 14
17 17 18 18 18 18 18 18 18 18 18 17 17 17 17 17 17 17 17 17 17 17 17 17 17 17 17 17 17 17 17 17 17 17 17 17 17 17 17 17 17 17 17 17 17 17 18 18 18 18 18 18 18 18 18 18 18 18 18 18 18 17 17 17 17 16 16 16 16 16 16 16 16 16 16 16 16 16 16 16 15 15 14 14 14
17 17 17 17 18 18 18 18 17 17 17 17 17 17 17 17 17 17 17 17 17 17 17 17 17 17 17 17 17 17 17 17 17 17 17 17 17 17 17 17 17 17 17 17 17 17 18 18 18 18 18 18 18 18 18 18 18 18 18 18 18 18 17 17 17 17 17 16 16 16 17 16 16 16 16 16 16 16 16 15 15 14 14 14 14
17 17 17 17 17 17 17 17 17 17 17 17 17 17 17 17 17 17 17 17 17 17 17 17 17 17 17 17 17 17 17 17 17 17 17 17 18 18 18 18 18 18 18 17 17 17 17 17 17 17 17 17 17 17 17 17 17 17 17 17 18 18 17 17 17 17 17 16 16 16 16 16 16 16 16 16 16 15 15 15 15 15 14 14 14
15 15 16 17 17 17 17 17 17 17 17 17 17 17 17 17 17 17 17 17 17 17 17 18 18 18 18 17 17 17 17 17 17 17 17 17 17 18 18 18 18 18 18 17 17 17 17 17 17 17 17 17 17 17 17 17 17 17 17 17 17 17 17 17 17 17 17 17 16 16 16 16 16 16 16 16 16 15 15 14 15 15 14 14 14
15 14 14 14 15 16 17 17 17 17 17 17 17 17 17 17 17 17 17 17 17 17 18 18 18 18 18 18 18 17 17 17 17 17 17 17 17 17 18 18 18 18 18 17 17 17 17 17 17 17 17 17 17 17 17 17 17 17 16 16 16 17 17 17 16 17 17 16 16 16 16 16 16 16 16 16 15 15 15 15 15 14 14 14 14
16 16 16 15 14 14 15 17 17 17 17 17 17 17 17 17 17 17 17 18 18 18 18 18 18 18 18 18 18 18 17 17 17 17 17 17 17 17 17 17 17 17 17 17 17 17 17 17 17 17 17 17 17 17 17 17 17 17 16 16 16 16 16 16 16 16 16 16 16 16 16 16 16 16 16 16 15 15 15 15 14 14 14 14 13
16 16 16 15 15 14 14 15 16 17 17 17 17 17 17 17 17 17 17 18 18 18 18 18 18 18 18 18 18 18 18 17 17 17 17 17 17 17 17 17 17 17 17 17 17 17 17 17 17 17 17 17 16 16 16 16 17 16 16 16 16 16 16 16 16 16 16 16 16 16 16 15 15 16 16 15 15 14 14 14 14 13 13 13 13
16 16 15 14 15 15 15 14 15 15 16 17 17 17 17 17 17 17 17 17 18 18 18 18 18 18 18 18 18 18 18 18 18 17 17 17 17 17 17 17 17 17 17 17 17 17 17 17 17 17 16 16 16 16 16 16 16 16 16 16 16 15 15 15 15 15 16 16 15 15 15 15 15 15 14 14 14 13 13 13 13 12 12 12 12
16 15 15 15 15 15 15 15 15 14 14 15 17 17 16 17 17 17 17 17 17 18 18 18 18 18 18 18 18 18 18 18 18 18 17 17 17 17 17 17 17 17 17 17 17 17 17 16 16 16 16 16 16 16 16 16 16 16 16 16 16 15 15 15 15 15 15 15 15 15 14 14 14 14 13 13 13 12 12 12 12 11 11 11 11
15 15 15 15 15 15 15 15 15 14 13 13 15 16 16 16 16 17 17 17 17 17 17 17 17 17 18 18 18 18 18 18 18 18 18 17 17 17 17 17 17 17 17 17 16 16 16 16 16 16 16 16 16 16 16 16 15 15 15 15 15 15 15 15 15 15 15 15 14 14 14 13 13 13 13 12 12 12 11 11 11 11 10 10 9
14 14 14 14 15 15 15 15 15 14 14 14 15 16 16 16 16 16 16 16 16 16 16 17 17 17 17 17 17 18 18 18 18 18 18 18 17 17 17 17 16 16 16 16 16 16 16 16 16 16 16 16 16 15 15 15 15 15 15 15 15 15 14 14 14 14 14 14 14 14 13 13 13 12 12 12 12 11 11 11 11 10 10 9 9
14 14 14 14 14 14 14 15 15 15 15 15 16 16 16 16 16 16 16 16 16 16 16 16 16 16 16 16 17 17 17 17 18 18 18 18 17 17 17 16 16 16 16 16 16 16 15 15 15 15 15 15 15 15 15 14 14 14 14 14 14 14 14 13 13 13 14 14 14 13 12 12 12 12 11 11 11 11 11 10 10 9 9 9 9
13 13 13 14 14 14 14 15 15 15 15 15 15 15 15 15 15 15 16 15 15 15 15 15 15 15 16 16 16 16 17 17 17 17 17 17 17 17 17 16 16 16 16 15 15 15 15 15 15 15 15 15 15 15 14 14 14 14 14 14 13 13 13 13 13 13 13 13 13 13 12 12 12 11 11 11 11 10 10 10 9 9 9 9 9
12 13 13 13 13 14 14 14 14 14 14 14 15 15 15 15 15 15 15 15 15 15 15 15 15 15 15 15 15 16 16 16 16 16 16 17 17 16 16 16 16 16 15 15 15 15 15 15 15 15 15 15 15 15 14 14 14 14 13 13 13 12 12 12 12 12 12 12 12 12 12 11 11 11 11 11 10 10 10 10 9 9 8 8 8
11 11 12 12 12 13 13 13 13 14 14 14 14 14 14 14 14 14 15 15 15 15 15 15 15 15 15 15 15 15 15 16 16 16 16 16 16 16 16 15 15 15 15 15 14 14 14 14 14 15 14 14 15 14 14 14 13 13 13 13 12 12 11 11 11 11 11 12 11 11 11 11 11 11 10 10 10 10 10 9 9 8 8 8 7
11 11 11 11 11 12 12 12 12 13 13 13 13 13 14 14 14 14 14 14 15 15 15 15 16 16 15 15 15 15 15 15 15 15 15 15 15 15 15 15 14 14 14 14 14 14 14 14 14 14 14 14 14 13 13 13 13 13 13 12 12 11 11 11 11 11 11 11 11 11 11 11 11 10 10 10 10 10 9 9 8 8 8 7 7
10 10 10 10 10 11 11 11 11 11 12 12 12 12 13 13 13 14 14 14 14 14 15 15 15 15 15 15 15 15 15 15 15 15 15 15 15 15 15 15 14 14 13 13 13 13 13 13 14 13 13 13 13 13 13 12 12 12 13 12 11 11 11 11 11 11 11 11 11 11 10 10 10 10 10 10 9 9 9 8 8 7 7 6 6
9 10 10 10 10 10 10 10 10 10 10 11 11 11 11 12 12 12 13 13 13 14 14 14 14 15 15 15 15 15 15 15 15 15 15 15 15 15 14 14 13 13 13 12 12 12 13 13 13 13 13 13 13 12 12 12 11 12 12 12 12 12 11 11 10 10 10 10 10 10 10 10 10 10 10 9 9 9 8 8 7 7 6 6 6
9 9 9 9 9 9 9 9 9 9 10 10 10 10 10 11 11 11 11 12 12 13 13 13 14 14 14 14 15 15 15 15 15 15 15 15 15 14 14 14 13 13 13 12 12 12 12 12 12 12 12 12 12 12 11 11 11 12 12 12 12 12 11 10 10 10 10 10 10 10 10 10 10 9 9 9 9 8 8 7 7 7 6 6 6
9 9 9 9 9 9 9 9 9 9 9 9 9 9 10 10 10 10 10 11 11 12 12 13 13 13 14 14 14 14 15 15 15 15 15 15 14 14 14 14 13 13 12 12 11 11 11 11 11 11 11 11 11 11 11 11 12 12 12 12 12 11 10 10 10 10 10 10 10 10 10 9 9 9 9 8 8 7 7 7 6 6 6 5 5
9 9 9 9 9 9 9 9 9 9 9 9 9 9 9 9 9 9 10 10 10 10 11 12 12 12 13 13 14 14 14 15 15 15 15 15 15 14 14 13 13 12 12 12 11 10 10 10 10 10 10 10 10 10 10 10 11 11 11 11 11 10 10 10 10 10 10 10 10 10 9 9 8 8 7 7 7 6 6 6 5 5 5 5 5
9 9 8 8 8 8 8 8 8 8 8 8 8 8 8 8 9 9 9 9 9 10 10 11 11 12 12 13 13 14 14 14 15 15 15 15 15 15 14 13 12 12 12 11 11 10 10 10 10 10 10 10 10 9 9 10 11 11 10 10 10 10 10 10 10 9 9 9 9 9 9 8 8 7 7 6 6 6 6 6 5 5 5 5 4
8 8 7 7 7 7 7 7 7 7 7 7 8 8 8 8 8 8 9 9 9 9 9 9 10 10 10 10 11 12 12 13 14 14 15 15 15 15 15 14 12 11 11 11 11 11 11 10 10 10 10 10 9 8 9 10 10 11 10 10 10 10 10 10 9 9 9 9 9 8 8 7 7 7 6 6 6 6 6 5 5 5 4 4 4
7 7 7 7 7 7 7 7 6 7 7 7 7 7 7 7 7 8 8 8 9 8 8 8 8 8 8 8 9 9 10 12 13 13 14 14 14 14 14 12 11 11 11 10 10 11 10 10 10 10 10 10 9 9 9 10 10 10 10 10 10 10 9 9 9 9 8 8 8 7 7 7 7 6 6 6 6 5 5 4 4 4 4 3 3
6 6 6 6 6 6 6 6 6 6 6 6 6 6 6 6 6 6 7 7 7 7 7 7 7 7 7 7 8 8 9 10 11 12 13 13 13 13 11 10 9 10 10 10 10 10 11 11 11 10 10 9 9 9 9 9 10 10 10 10 10 10 9 9 9 9 8 8 7 7 7 6 6 6 6 5 5 4 4 4 4 3 3 3 2
6 6 6 6 6 5 5 5 5 5 5 5 5 5 5 5 5 6 6 6 6 7 7 7 7 7 7 7 7 8 9 10 10 11 11 12 12 12 10 9 9 9 9 10 10 10 10 10 9 9 8 8 8 9 9 9 10 9 9 9 9 9 9 8 8 8 7 7 7 7 6 6 6 5 5 5 4 4 4 3 3 3 2 2 2
5 5 5 5 5 5 5 4 4 4 4 4 4 4 5 5 5 5 5 5 6 6 6 6 6 6 7 7 7 7 8 9 10 10 10 10 11 11 11 10 9 9 9 9 8 8 8 8 7 7 7 8 8 8 9 9 9 9 9 8 8 8 8 8 8 7 7 7 7 6 6 6 5 5 5 4 4 4 3 3 3 2 2 2 2
5 4 4 4 4 4 4 4 4 4 4 3 4 4 4 4 4 4 5 5 5 5 5 5 6 6 6 7 7 7 8 9 10 10 10 9 9 10 11 10 9 9 9 8 6 5 5 5 5 6 7 8 8 8 8 9 8 8 8 8 8 8 8 7 7 7 6 6 6 6 5 5 5 5 4 4 4 3 3 3 2 2 2 2 2
4 4 4 4 4 4 3 3 3 3 3 3 3 3 3 3 4 4 4 4 4 5 5 5 5 5 6 6 6 7 7 8 9 10 10 10 9 8 9 9 8 8 9 8 5 4 4 5 4 5 6 7 8 8 8 8 8 7 7 7 8 7 7 7 6 6 6 6 5 5 5 5 4 4 4 3 3 3 3 2 2 2 2 2 1
4 4 4 4 4 3 3 3 3 3 3 3 3 3 3 3 3 3 3 4 4 4 4 4 5 5 6 6 6 6 7 7 8 9 9 10 9 8 8 7 7 8 9 8 6 5 5 5 5 5 5 6 7 8 8 7 7 7 7 7 7 7 7 6 6 6 6 6 5 5 5 4 4 4 4 3 3 3 3 2 2 2 2 1 1
4 4 4 4 4 3 3 3 3 3 3 3 2 2 2 2 2 3 3 3 3 3 3 3 4 5 5 5 6 6 6 7 7 8 8 9 9 9 8 7 7 6 6 6 6 6 5 5 5 5 5 6 7 7 7 7 8 7 7 7 7 7 7 6 6 6 6 5 5 5 4 4 4 4 4 3 3 3 2 2 2 2 1 1 0
4 4 4 4 3 3 3 3 3 2 2 2 2 2 2 2 2 2 2 2 2 2 3 3 4 4 5 5 5 6 6 7 7 7 8 8 9 8 8 7 6 5 4 4 4 4 4 4 5 5 6 7 7 7 7 8 8 8 7 7 7 7 6 6 6 5 5 5 5 4 4 4 4 4 3 3 3 2 2 2 1 1 1 0 0
4 4 4 4 3 3 3 3 2 2 2 2 2 2 2 2 2 2 2 2 2 2 2 3 3 4 4 5 5 5 6 7 7 7 7 7 7 7 7 6 5 4 4 4 3 2 3 4 5 5 6 7 7 7 7 8 8 7 7 7 6 6 6 5 5 5 5 5 4 4 4 4 4 4 3 3 2 2 1 1 1 0 0 0 0
4 4 4 3 3 3 3 3 2 2 2 2 2 1 1 2 2 2 2 2 2 2 2 3 3 4 4 4 5 5 6 6 7 7 6 6 6 6 6 5 4 3 4 4 3 3 3 4 5 6 6 7 7 7 8 7 7 7 7 6 6 6 5 5 5 5 5 4 4 4 4 4 3 3 3 2 2 1 1 1 0 0 0 0 -0
4 4 4 3 3 3 2 2 2 2 2 2 2 2 2 2 2 2 2 2 2 2 2 3 3 3 4 4 4 5 5 5 6 6 5 5 5 6 6 4 4 3 4 4 3 3 4 4 5 6 7 7 7 7 7 7 7 7 6 6 6 6 5 5 5 5 4 4 4 4 3 3 3 3 2 2 1 1 1 0 0 0 0 0 -0
4 4 3 3 3 2 2 2 2 2 2 2 2 2 2 2 2 2 2 2 2 2 2 2 3 3 4 4 4 4 4 4 4 4 4 4 4 5 5 4 4 3 3 3 3 3 4 5 6 6 6 7 7 7 7 7 7 7 6 6 6 5 5 5 5 4 4 4 3 3 3 3 2 2 2 1 1 1 0 0 0 0 0 0 0
4 4 3 3 3 2 2 2 2 2 2 2 2 2 2 2 2 2 2 2 2 2 2 2 3 3 3 4 4 4 3 3 3 3 3 3 4 4 4 4 4 3 3 3 3 4 5 6 6 6 6 7 7 7 7 7 6 6 6 6 6 5 5 5 4 4 4 3 3 3 3 2 2 1 1 1 1 1 0 0 1 1 0 0 0
4 3 3 3 3 2 2 2 2 2 2 2 1 1 1 2 2 2 2 2 2 2 2 2 3 3 3 3 4 3 3 3 3 3 3 3 4 3 4 4 4 4 4 4 4 4 5 6 6 6 7 7 6 6 6 6 6 6 6 6 5 5 5 4 4 3 3 3 3 3 2 2 2 1 1 1 1 1 1 1 1 1 1 0 0
4 3 3 3 2 2 2 2 2 2 2 2 2 2 2 2 2 2 2 2 2 2 3 3 2 2 2 3 3 3 3 3 3 3 4 4 4 3 4 4 4 4 5 5 4 5 5 5 6 6 6 6 6 6 6 6 6 6 5 5 5 4 4 4 3 3 3 3 2 2 2 1 1 1 1 1 1 1 1 1 1 1 0 0 0
4 3 3 3 3 3 3 3 2 2 2 2 2 3 3 3 3 3 2 2 2 3 3 2 2 2 2 3 2 2 3 3 3 4 4 4 4 4 4 4 4 5 5 4 4 4 4 4 5 5 5 5 5 5 5 6 5 5 5 4 4 4 3 3 3 3 3 2 2 1 1 1 1 1 1 1 1 1 1 1 1 1 1 1 1
4 3 3 3 3 3 3 3 3 3 3 3 3 3 3 3 4 3 3 3 3 3 2 2 2 2 3 3 3 3 3 3 3 3 3 3 3 4 4 4 4 4 4 4 4 4 4 4 5 5 5 5 5 5 5 5 5 5 4 4 3 3 3 3 3 2 2 2 1 1 1 1 0 0 0 1 1 1 1 1 1 1 1 1 1
4 3 3 3 3 3 3 3 3 3 3 4 4 4 4 4 4 4 3 3 3 3 2 2 2 2 2 3 3 3 3 2 2 2 2 3 3 3 3 3 3 4 3 3 3 4 4 5 5 5 5 5 5 5 5 4 4 4 4 4 3 3 2 2 2 2 2 1 1 1 1 0 0 0 1 1 1 1 1 1 1 1 1 1 1
3 3 2 2 3 2 3 3 3 3 3 4 4 4 4 4 4 4 3 3 2 2 2 2 2 2 2 2 2 2 2 2 2 2 2 2 2 2 3 3 3 3 3 3 3 4 4 4 4 4 4 4 4 4 4 4 4 3 3 3 3 3 2 2 2 1 1 1 1 1 1 0 0 0 0 1 1 1 1 1 1 1 1 1 1
3 3 2 2 2 2 2 3 3 3 3 3 3 3 3 4 4 3 3 3 2 2 2 1 1 1 1 1 1 2 2 2 2 2 2 2 2 2 2 3 3 3 3 3 3 3 3 3 3 3 3 3 3 3 3 3 3 3 3 2 2 2 2 1 1 1 1 1 1 1 0 0 0 0 0 0 1 1 1 1 1 1 1 1 1
3 3 3 2 2 2 2 2 2 2 2 3 3 3 3 3 3 3 2 2 2 1 1 1 1 1 1 1 1 2 2 1 1 1 1 1 2 2 2 3 3 3 2 2 2 2 2 2 2 3 3 3 3 2 2 2 2 2 2 2 1 1 1 1 1 1 1 1 0 0 0 0 0 0 0 1 1 1 1 1 1 1 1 1 1
3 3 3 2 2 1 2 2 2 1 2 2 2 2 3 3 3 2 2 2 1 1 1 0 0 -0 0 0 0 1 1 1 1 1 1 1 1 2 2 2 2 2 2 1 1 2 2 2 2 2 2 2 2 2 2 2 1 1 1 1 1 1 1 1 1 1 1 0 0 0 0 0 0 0 0 1 1 1 1 1 1 1 1 1 1
3 3 3 2 2 1 1 1 1 1 1 1 1 2 2 2 2 2 2 1 1 1 1 1 0 -0 -0 -0 0 0 1 1 1 1 1 1 1 1 1 1 1 1 1 1 1 1 2 2 2 2 1 1 1 1 1 1 1 1 1 1 1 1 1 1 1 1 0 0 0 0 0 0 0 0 0 0 1 1 1 1 1 1 1 1 1
3 3 3 3 2 1 1 1 1 1 1 1 1 1 1 1 2 2 1 1 0 0 0 0 -0 -0 -0 -0 0 0 0 0 0 0 0 0 0 0 0 1 1 1 1 1 1 1 1 1 1 1 1 1 1 1 1 1 1 1 1 1 1 1 1 1 1 1 1 1 0 0 0 0 0 0 0 0 1 1 1 1 1 1 1 1 1
4 3 3 3 2 1 1 0 0 0 1 1 1 1 0 0 1 1 1 0 0 0 0 0 -0 -0 -0 -0 0 0 -0 -0 -0 -0 -0 -0 -0 0 0 0 0 0 0 0 0 1 1 1 1 1 1 1 1 1 1 1 1 1 1 1 1 1 1 1 1 1 1 1 1 1 1 0 0 0 0 0 1 1 1 1 1 1 1 1 1
Height
799 801 802 804 806 807 808 809 811 813 814 816 817 818 820 821 822 824 825 827 828 829 830 831 832 833 834 835 836 837 838 840 842 843 844 845 845 845 846 846 846 846 847 848 849 850 851 851 852 853 854 855 856 857 858 859 860 861 861 861 862 863 863 864 865 868 869 870 870 871 871 871 871 871 871 870 870 869 868 868 867 867 868 868 867
799 801 802 804 806 807 808 809 810 812 814 816 817 818 820 821 822 824 825 827 828 829 830 831 832 833 834 835 836 837 838 840 841 843 844 845 846 846 847 847 847 847 848 848 849 850 851 852 853 854 855 856 857 858 859 859 861 862 862 862 863 864 864 864 865 867 868 869 870 870 870 870 870 870 870 869 869 869 868 867 867 867 867 867 867
800 802 803 805 806 807 808 809 811 813 814 816 817 818 819 821 822 823 825 826 828 829 830 831 832 833 834 835 836 837 838 839 841 842 843 845 845 846 847 848 848 848 848 849 849 850 851 852 853 854 855 856 858 859 860 860 861 862 862 863 863 864 864 864 865 866 867 868 869 869 870 870 869 869 869 869 869 868 867 867 866 866 867 867 866
800 802 804 805 806 807 808 810 812 813 814 816 817 818 819 820 822 823 824 826 827 829 830 831 832 833 834 836 836 837 838 839 840 842 843 844 845 846 847 848 848 849 849 849 850 851 851 852 853 854 855 856 857 859 860 861 861 862 862 863 863 863 864 864 864 865 866 867 868 868 868 869 869 868 868 868 868 868 868 867 866 866 866 866 866
801 802 804 805 806 808 809 811 812 814 815 816 817 818 819 820 821 822 824 825 827 828 829 830 832 833 835 836 837 838 839 840 841 841 842 843 844 845 846 847 848 849 849 850 850 851 852 852 853 854 855 856 857 858 859 860 861 862 862 862 863 863 864 864 864 865 865 866 866 867 867 867 867 867 867 867 867 867 867 866 866 866 866 866 865
804 805 806 806 807 809 810 812 814 815 816 817 818 819 819 820 821 822 824 825 826 827 829 830 832 833 834 835 837 838 839 840 841 841 842 843 843 844 845 846 847 848 848 849 850 850 851 852 853 854 854 855 856 857 858 859 860 861 862 862 862 863 863 864 864 864 865 865 865 865 866 866 866 866 866 865 866 866 866 865 865 865 865 865 864
804 807 809 811 812 813 813 814 815 817 817 818 818 819 819 820 821 822 823 824 826 827 828 830 831 833 834 835 836 837 838 839 840 840 841 842 843 843 844 845 845 846 847 848 848 849 850 851 852 852 853 854 855 856 857 858 859 860 861 862 862 862 863 863 863 864 864 864 864 864 864 865 865 865 865 864 864 864 864 864 864 864 864 863 863
802 806 808 811 815 817 817 817 816 818 818 818 819 819 819 820 820 822 823 824 825 827 828 829 831 832 833 834 835 836 837 838 838 839 840 841 842 842 842 843 844 844 845 846 847 847 848 849 850 850 851 853 854 855 855 856 857 858 859 860 861 862 862 862 863 863 863 863 863 863 864 864 863 863 863 862 862 863 863 863 863 862 862 862 862
803 806 807 809 812 816 818 818 818 819 819 819 819 819 820 820 821 822 823 823 825 826 827 829 830 831 832 833 834 835 836 837 838 839 839 840 840 841 841 842 842 843 843 844 845 845 846 847 848 849 850 851 852 853 854 855 855 856 857 858 859 860 861 861 862 862 862 861 862 862 862 862 862 861 861 861 861 862 862 862 862 862 861 861 862
805 808 810 811 812 814 816 818 820 821 820 819 820 820 820 821 821 822 823 824 825 826 827 828 829 830 831 832 833 834 835 836 837 838 838 839 839 840 840 841 841 841 841 842 843 843 844 845 846 847 848 849 850 851 852 853 853 854 855 856 857 858 859 860 860 860 861 860 860 861 860 861 861 860 860 860 861 861 861 862 862 862 861 861 861
806 809 811 812 813 814 814 816 820 822 822 821 820 820 821 821 821 822 823 823 825 825 827 828 828 829 830 831 832 833 833 834 835 835 836 836 837 838 838 839 840 840 840 840 841 841 842 844 845 846 847 848 849 850 851 851 851 851 852 853 854 855 856 857 857 858 859 859 859 860 859 860 860 860 860 860 861 861 861 861 861 861 861 861 860
809 811 812 813 814 815 815 816 818 821 824 823 821 820 821 821 821 822 822 823 824 825 826 827 827 828 829 829 830 831 831 831 832 832 833 834 835 835 836 837 838 838 838 839 839 840 840 842 843 844 845 846 847 848 849 850 850 850 850 850 851 852 853 854 855 855 856 857 858 858 858 858 859 859 859 859 860 860 860 860 860 860 860 860 860
811 813 814 815 816 816 818 818 818 820 823 823 821 820 820 821 821 822 822 823 824 825 826 826 827 827 827 828 829 829 829 829 829 830 831 831 832 832 833 834 835 835 836 837 838 839 839 840 841 842 844 845 846 846 847 848 848 848 848 848 849 850 851 852 853 854 854 855 856 856 856 857 857 857 858 858 859 859 859 859 859 859 859 859 859
813 814 815 816 817 818 819 819 819 821 822 822 821 820 821 821 821 822 822 823 823 824 825 826 826 826 826 827 827 827 828 828 828 829 829 829 830 830 831 832 832 833 834 835 836 837 838 839 840 841 842 843 844 844 845 846 846 846 846 847 847 848 848 849 850 852 853 853 854 854 855 856 856 856 857 857 857 858 858 858 858 858 858 858 858
814 815 816 817 818 819 819 819 820 822 822 822 821 821 821 821 821 821 822 822 823 823 824 824 825 825 825 826 826 826 826 827 827 828 828 828 829 829 829 829 830 831 832 833 835 836 837 838 839 840 841 841 842 842 843 844 844 845 845 845 846 847 847 848 849 850 851 852 852 853 854 854 855 855 856 856 856 856 856 856 856 856 857 856 856
816 817 818 818 819 820 820 820 821 821 821 821 820 821 821 821 821 821 821 821 822 822 823 823 823 824 824 824 824 824 825 825 826 827 827 827 828 828 828 828 828 829 830 831 833 834 835 836 837 838 838 839 840 840 841 842 842 843 843 843 844 845 847 847 848 848 849 850 851 851 852 853 854 855 855 855 855 855 855 855 855 855 855 854 854
819 820 820 821 821 822 822 821 821 821 820 820 820 820 820 820 820 820 820 820 820 820 821 821 821 821 822 822 822 822 823 824 824 825 825 826 826 826 827 827 827 828 829 830 831 831 832 833 834 835 836 837 838 838 839 839 840 840 840 840 841 844 845 846 847 847 848 849 850 851 852 853 853 854 853 853 853 853 853 853 854 853 853 853 853
822 822 823 823 824 824 823 822 822 821 820 819 819 819 819 819 819 819 819 818 817 817 817 818 819 819 819 820 820 821 821 822 822 823 823 823 824 824 825 825 825 826 827 828 829 829 830 830 831 832 833 834 836 836 837 838 839 839 838 838 839 841 844 845 846 847 847 848 849 850 851 852 852 852 852 852 852 852 852 852 852 853 853 853 854
824 824 825 825 825 825 824 824 823 822 821 821 820 820 819 819 819 819 819 819 818 817 817 818 818 818 818 818 818 818 819 819 820 820 820 821 821 821 822 823 823 823 825 826 826 827 829 829 829 829 830 832 833 834 836 837 838 838 838 838 838 840 842 844 845 846 847 848 849 850 850 851 851 851 851 851 851 851 851 851 852 852 853 853 853
827 827 827 826 826 826 826 825 824 823 822 822 821 821 820 819 819 819 819 819 819 818 818 818 817 817 818 817 817 816 816 816 817 817 817 818 818 818 819 819 820 820 821 822 823 824 826 827 826 826 828 829 830 831 833 835 837 838 838 837 838 840 841 843 845 846 847 848 849 849 849 849 849 849 850 849 850 850 850 851 851 852 852 852 852
827 827 827 826 826 826 825 824 823 822 822 821 820 820 819 819 819 818 818 819 818 818 818 817 816 816 815 815 815 814 814 813 813 814 814 814 814 814 815 815 816 817 818 819 819 821 822 822 823 824 825 826 827 828 830 833 835 836 836 837 838 839 841 843 845 846 847 848 848 848 848 848 848 848 848 848 849 850 850 851 851 851 851 851 850
827 826 825 825 824 824 823 823 822 821 820 819 819 818 818 818 818 818 817 817 816 816 816 816 815 814 813 813 812 812 812 811 810 810 810 811 811 811 811 811 812 813 815 816 816 816 817 818 819 820 822 824 825 826 829 831 833 833 834 836 838 839 841 843 845 846 847 847 848 848 848 848 848 848 848 849 849 850 850 850 850 850 850 850 849
826 825 824 824 823 823 822 822 821 821 820 820 819 819 818 818 818 818 817 816 815 815 814 814 814 812 811 810 809 809 809 808 807 807 807 807 808 808 807 808 809 810 810 811 812 813 814 816 817 818 819 821 823 825 828 831 831 832 833 836 838 839 841 843 844 845 847 848 848 849 849 848 848 848 849 849 850 850 850 850 849 849 849 848 848
825 824 824 823 823 822 822 821 821 820 820 820 819 819 819 818 818 818 817 816 816 815 814 814 813 811 809 808 807 806 806 805 805 804 804 804 804 804 803 803 804 806 807 807 809 810 812 813 815 816 818 820 821 823 827 830 830 831 833 836 838 839 840 842 843 844 847 848 849 849 848 848 848 848 848 849 849 849 849 848 848 847 847 847 847
824 824 824 823 823 822 822 821 821 821 820 820 820 819 819 818 818 818 817 816 815 814 813 813 812 810 809 807 806 805 804 802 800 800 800 801 800 800 799 799 800 802 803 804 805 807 809 810 813 814 816 819 821 823 826 827 828 830 832 834 836 837 839 841 843 845 847 849 849 848 848 848 848 848 848 848 848 847 847 847 846 846 846 845 845
825 825 824 824 823 822 822 821 821 821 821 821 820 819 819 818 818 817 816 815 815 814 813 812 811 810 809 807 806 804 802 799 797 796 796 797 796 796 796 796 797 798 799 800 802 805 806 808 810 811 814 817 820 822 824 826 827 829 831 832 833 835 838 840 843 845 847 848 848 848 848 848 847 847 847 846 846 846 846 846 845 845 844 844 844
827 826 826 825 824 823 823 822 821 821 820 820 819 818 818 818 817 816 816 815 814 813 812 811 810 809 807 806 804 803 801 799 796 794 793 793 793 792 793 795 798 797 796 798 800 802 803 804 806 809 812 816 819 820 821 823 825 827 829 830 832 834 837 839 842 843 845 846 846 847 847 847 847 847 846 846 845 845 845 845 845 844 844 844 844
829 828 827 826 826 825 824 823 822 821 820 819 818 818 817 816 816 815 815 815 814 812 811 810 809 808 807 804 803 802 800 799 797 795 794 793 791 790 790 793 797 798 797 797 798 798 799 801 804 807 810 814 816 818 819 821 823 825 827 829 831 833 836 838 840 842 843 844 845 845 846 846 846 846 846 846 845 845 845 844 844 844 844 844 844
830 829 828 828 827 826 825 824 823 821 820 819 818 817 817 816 815 815 814 814 813 812 810 809 808 807 805 803 802 800 799 797 796 795 794 793 792 790 789 790 793 795 797 798 799 798 798 799 802 805 808 810 813 814 817 819 821 824 826 828 830 833 835 837 839 841 842 843 844 844 845 845 846 846 846 845 845 845 844 844 844 844 844 844 843
830 830 829 828 828 826 825 824 823 822 821 819 818 816 815 815 815 814 813 812 811 810 809 807 807 805 803 801 800 799 797 796 795 794 793 792 791 790 789 789 790 791 793 796 799 800 800 800 801 803 805 808 810 812 814 817 820 823 825 827 830 832 835 837 839 840 841 842 843 844 844 845 846 845 845 844 844 844 844 844 844 844 843 843 842
830 830 829 828 828 826 825 825 823 822 821 820 818 816 815 814 813 812 811 810 808 807 806 805 804 804 802 799 796 795 795 794 793 792 791 791 791 791 791 790 788 789 790 792 797 801 803 803 805 807 807 808 809 811 814 816 818 821 824 827 830 832 834 836 838 839 840 841 842 843 844 844 845 844 844 844 844 844 844 844 843 843 842 842 842
829 828 828 828 827 826 825 824 823 821 820 819 817 816 814 813 811 810 809 808 807 805 804 802 801 801 800 797 794 792 792 792 791 791 790 789 789 789 791 791 789 789 789 790 793 799 802 805 808 812 813 813 813 814 815 816 818 821 824 827 829 831 833 835 837 838 839 840 841 843 843 843 843 843 843 843 843 843 843 842 842 842 842 842 842
828 827 827 826 825 825 824 823 821 820 819 817 816 815 814 813 811 809 807 806 804 803 802 801 799 798 797 795 792 790 789 789 789 788 788 787 787 787 788 789 789 790 791 791 791 793 797 801 806 811 815 817 817 817 816 817 818 821 823 826 828 831 833 835 836 837 838 840 841 842 842 842 842 842 842 842 842 841 841 841 842 842 842 842 842
827 826 826 825 824 823 822 821 820 819 818 817 815 814 813 812 811 809 807 805 803 800 797 797 797 796 794 792 790 788 787 786 786 786 785 785 785 785 785 786 787 790 792 794 794 793 792 796 801 806 811 815 817 818 818 818 819 821 823 825 828 830 833 834 836 837 838 839 840 841 841 841 841 841 841 841 840 840 841 841 842 842 842 841 841
826 825 825 824 823 822 821 820 819 818 817 816 814 813 812 811 810 809 808 806 804 801 797 795 794 793 792 789 787 785 784 784 783 783 783 783 783 783 783 784 787 789 790 793 797 798 797 797 800 805 808 812 815 817 818 819 820 821 822 825 827 830 832 834 835 836 837 838 839 840 840 840 840 840 840 840 840 841 841 842 842 841 841 841 840
825 824 824 823 822 821 820 819 818 817 816 815 813 812 810 810 809 808 807 805 803 801 798 795 793 791 790 787 785 783 782 782 781 781 781 782 782 782 782 782 785 789 790 791 795 800 802 803 804 806 808 810 813 816 817 819 820 821 822 824 826 829 831 833 834 836 837 837 838 839 839 839 839 839 839 840 840 841 842 842 841 841 840 840 838
824 823 822 822 821 819 818 817 817 816 815 814 812 811 809 809 808 807 805 803 801 799 797 794 791 789 787 786 784 783 782 782 781 780 780 781 782 782 782 782 784 788 792 793 795 799 804 808 809 808 809 810 813 815 817 819 820 821 822 824 826 828 830 832 834 835 836 836 837 838 838 838 839 839 839 840 841 841 841 841 841 840 839 838 837
823 822 822 821 820 818 817 816 815 815 813 812 811 810 808 807 806 805 803 801 799 797 794 792 789 787 785 785 784 784 783 783 782 781 782 783 783 783 783 784 786 788 792 794 796 798 803 808 810 810 811 812 814 815 817 819 821 821 822 824 825 827 829 831 833 834 835 835 836 837 837 838 839 839 840 840 841 841 841 840 840 839 838 837 836
822 821 821 820 819 818 817 815 814 813 812 811 810 808 807 806 804 803 801 799 797 795 793 791 788 786 785 785 785 785 785 785 784 784 784 785 785 785 786 787 789 791 793 796 798 800 802 806 809 811 812 814 815 816 818 820 821 822 822 823 824 826 828 830 832 833 834 835 836 837 837 837 838 839 839 840 840 840 840 840 839 839 838 836 835
821 820 820 819 818 817 816 815 814 812 811 809 808 806 805 804 802 801 799 798 796 795 793 791 788 786 785 786 786 786 787 787 786 787 787 788 789 789 790 791 793 795 796 798 800 802 804 807 809 812 813 815 816 817 819 820 821 822 822 823 824 826 828 830 832 833 834 835 836 836 836 837 837 838 838 839 839 839 839 839 839 838 837 836 835
820 820 819 818 817 816 815 814 812 811 809 808 806 805 804 802 801 799 798 797 795 794 792 790 789 788 787 787 787 787 788 788 789 789 790 790 791 793 793 794 796 798 799 800 801 802 805 808 811 813 815 817 818 818 819 820 820 821 821 822 824 826 828 830 832 833 834 835 835 835 835 836 836 837 837 838 839 839 839 839 838 838 837 835 834
819 819 818 817 816 816 814 813 811 810 808 807 805 804 803 801 799 798 797 796 795 794 792 791 790 789 788 788 788 788 789 790 790 791 792 792 793 795 796 798 799 800 801 802 803 804 806 809 812 814 816 818 819 819 819 819 820 820 821 822 825 826 828 830 832 833 834 835 835 834 834 835 835 836 837 838 838 839 839 838 838 837 836 834 833
819 818 817 817 816 815 814 812 811 809 807 806 804 803 802 801 799 798 798 797 796 794 793 792 791 791 790 790 789 789 790 790 791 792 793 793 795 796 798 799 800 801 802 804 805 805 806 808 811 813 815 817 818 818 818 819 820 821 821 823 825 827 829 831 832 833 834 834 833 833 834 834 835 836 836 837 838 838 838 838 837 837 835 834 832
818 818 817 816 816 815 814 813 811 809 807 806 805 804 802 801 800 799 799 798 797 796 796 795 794 793 793 792 791 791 791 792 792 793 794 795 796 797 799 799 800 801 803 805 806 807 807 808 810 812 814 816 817 818 819 821 822 822 823 824 826 828 830 831 832 833 833 833 833 833 833 834 834 835 836 837 838 838 838 838 837 836 835 833 832
818 817 817 816 815 815 814 813 811 810 809 807 806 804 802 801 801 801 801 800 800 799 798 797 797 796 795 795 794 794 794 794 794 795 796 797 798 799 800 800 801 803 804 806 808 809 809 810 811 813 815 817 819 820 821 823 823 824 825 826 827 828 830 831 831 832 832 833 833 833 833 833 834 835 836 837 838 838 838 837 836 835 834 833 832
818 817 816 815 815 815 814 813 812 811 810 808 807 805 804 803 803 803 803 802 802 801 801 800 799 799 798 798 797 797 797 797 797 797 798 799 800 801 802 803 804 805 806 808 809 810 812 813 814 815 817 819 821 822 823 824 824 826 827 827 828 829 829 830 831 832 832 833 833 833 833 833 834 835 836 837 837 838 837 837 836 834 834 833 832
817 816 816 815 815 815 814 814 813 812 811 810 809 808 806 805 804 804 804 804 803 803 803 802 802 802 801 801 800 800 800 800 800 800 801 801 802 804 805 806 807 808 809 810 811 812 813 815 816 818 820 821 822 823 824 825 826 827 828 828 829 829 830 830 831 832 833 833 833 833 833 834 835 836 836 837 837 837 836 836 835 834 833 832 831
817 816 815 815 815 815 814 814 814 813 812 811 810 809 808 807 806 805 805 805 805 805 805 805 805 805 804 804 803 803 803 803 803 803 804 805 806 807 808 808 809 810 811 812 813 814 815 817 819 820 822 823 824 824 825 826 827 828 828 829 830 830 830 831 831 832 832 833 833 833 834 835 836 836 837 837 837 836 835 835 834 833 833 832 831
817 816 815 815 815 815 815 814 814 814 813 812 811 810 809 808 807 807 807 807 807 807 807 807 808 808 807 807 807 807 806 807 807 808 808 809 810 811 811 812 812 813 814 816 816 816 818 819 821 822 823 824 825 826 826 827 828 828 829 830 830 830 830 831 831 832 833 833 834 834 835 836 837 837 837 837 836 836 835 834 834 833 833 832 831
816 816 815 815 815 814 815 815 815 814 814 813 812 812 811 810 809 809 809 809 809 809 809 809 810 810 810 810 810 810 810 810 811 812 812 813 814 814 814 815 815 816 817 818 819 819 820 822 823 824 825 826 826 826 827 827 828 829 830 830 830 830 831 831 832 833 834 834 835 835 836 837 837 838 837 836 836 835 835 834 834 833 833 832 830
815 815 815 815 815 815 815 815 815 815 815 814 814 813 812 812 811 811 811 811 811 811 811 812 812 813 813 813 813 813 813 814 814 815 816 816 817 817 817 818 818 818 819 820 821 821 823 824 824 825 826 826 826 827 828 828 829 830 830 830 831 831 831 832 833 834 835 836 836 837 837 837 837 837 837 836 836 835 834 834 834 833 832 832 830
Wind_Speed
19 20 19 20 22 21 19 21 22 21 21 20 20 20 19 18 17 17 17 17 18 17 16 16 16 16 16 15 16 17 15 14 14 14 15 16 16 17 18 18 19 19 19 17 17 16 16 16 14 13 12 12 12 12 12 11 9 11 13 15 17 16 14 16 15 10 8 9 10 9 8 8 9 8 3 1 1 3 4 5 5 4 3 5 9
19 19 19 20 21 21 20 22 22 21 20 19 19 20 19 18 17 16 16 17 17 17 16 16 16 16 16 16 16 16 15 15 15 14 15 16 16 17 18 19 19 20 19 17 17 16 16 16 15 12 12 11 10 9 8 6 6 10 13 15 16 13 11 15 17 13 11 12 11 8 8 7 9 10 7 4 1 2 4 4 6 6 4 5 9
18 19 20 21 21 20 21 21 21 20 19 18 19 20 19 17 16 15 16 17 17 15 14 14 15 15 16 17 16 16 16 16 15 15 16 16 16 17 17 17 18 18 18 17 16 15 15 15 13 11 11 11 10 9 9 8 8 12 13 12 12 12 10 12 14 14 14 14 12 10 8 6 7 10 10 8 4 1 2 3 3 2 3 6 9
20 21 21 21 20 20 20 20 20 19 19 18 18 19 18 16 16 15 14 15 17 15 14 13 13 15 16 16 15 16 15 14 15 17 16 13 15 18 18 17 16 17 17 16 14 13 12 12 12 11 11 10 9 8 9 9 9 10 10 8 9 10 10 9 11 13 14 14 14 13 10 7 6 7 8 9 8 4 1 1 2 4 5 6 7
20 23 23 21 20 19 18 19 20 19 18 18 17 17 16 15 14 13 12 14 16 14 13 12 11 14 16 14 15 16 14 14 16 18 14 12 17 21 20 17 15 16 16 14 13 11 10 10 11 11 10 9 7 7 7 8 8 8 7 7 7 7 7 8 9 11 12 14 14 14 12 9 8 7 6 8 11 8 3 3 5 5 0 4 6
7 10 14 17 19 19 17 17 19 19 17 15 15 14 13 13 13 11 11 12 11 11 12 12 11 13 14 15 16 16 15 14 16 17 14 14 18 21 20 18 16 16 16 15 13 12 10 11 11 10 10 8 6 6 6 7 6 6 7 7 7 7 6 5 5 7 9 11 12 14 14 12 9 9 7 7 10 11 8 5 4 4 4 6 7
10 8 6 6 7 12 15 15 15 15 14 14 13 12 11 12 13 12 10 10 9 10 13 12 11 12 13 14 16 16 15 15 16 17 16 15 16 19 20 18 15 16 17 16 15 13 12 13 12 11 12 10 8 7 6 7 6 3 4 5 6 6 5 3 3 4 6 6 5 9 13 12 10 9 8 6 8 9 8 5 4 4 6 8 9
12 9 9 6 4 2 6 11 14 12 11 12 13 11 11 11 11 10 10 11 11 11 12 12 12 12 12 12 15 16 16 15 16 18 17 16 17 18 20 17 15 17 19 18 17 16 15 16 16 15 14 13 11 9 8 8 7 5 2 3 4 4 4 3 4 5 4 3 2 4 7 9 10 12 11 8 7 6 5 5 4 5 6 7 9
12 10 11 12 8 4 1 2 7 10 12 12 11 10 10 10 10 10 9 11 13 12 11 11 11 11 12 12 13 15 15 15 17 18 17 18 18 17 19 18 16 18 19 18 19 19 17 18 18 17 15 14 13 12 11 10 10 8 7 5 5 5 5 4 5 5 5 3 3 4 5 4 5 9 10 8 6 5 4 4 3 4 6 8 9
15 12 11 9 8 9 7 3 2 3 7 11 12 10 9 9 9 9 6 7 12 13 12 11 10 11 12 11 12 15 15 15 17 18 18 18 19 18 19 20 18 18 19 19 20 21 20 19 19 18 16 16 15 14 13 13 13 12 11 10 9 7 7 7 6 7 7 6 5 6 3 1 2 4 6 6 5 5 3 1 1 3 6 9 10
18 15 12 10 8 9 10 7 4 1 1 4 10 10 8 8 7 6 5 4 7 12 13 12 10 11 12 12 12 13 16 17 18 19 19 20 21 20 20 22 20 20 21 21 21 22 22 20 19 18 17 16 16 15 14 14 15 15 14 14 13 13 12 11 10 9 9 8 5 4 4 6 6 6 9 9 6 4 2 2 3 5 7 8 9
19 17 13 10 9 10 10 8 6 4 2 1 4 6 7 7 6 5 4 3 3 6 9 11 10 9 11 13 13 13 15 18 20 21 21 21 23 23 23 23 23 22 23 23 22 22 23 21 19 18 17 16 15 14 14 16 16 15 15 15 14 15 15 15 13 11 11 11 8 5 6 8 8 7 7 6 3 1 3 4 5 6 7 8 10
25 23 20 16 13 11 10 7 6 6 5 3 2 3 3 4 5 6 5 4 2 2 4 8 10 10 9 11 14 14 15 17 21 22 22 23 24 24 25 25 26 25 26 25 23 22 22 22 20 19 17 15 14 14 16 17 16 15 14 13 12 14 15 16 15 13 11 11 10 8 8 8 7 5 4 2 1 3 5 7 8 8 9 10 12
28 27 26 24 22 18 16 14 12 7 4 3 3 3 2 1 2 3 4 5 6 6 7 8 10 11 11 10 12 14 14 15 18 21 22 24 25 26 27 27 28 27 26 26 24 22 22 21 20 19 17 15 14 15 16 17 16 14 13 11 11 13 15 15 15 14 12 10 9 8 7 7 6 4 1 1 4 6 7 9 10 9 10 10 11
27 25 25 24 24 22 21 20 18 15 12 11 10 9 8 4 1 2 3 4 5 6 8 10 10 12 13 13 13 15 15 15 15 17 19 22 25 26 27 28 28 28 26 25 23 21 19 19 19 18 17 16 16 17 17 17 16 14 12 11 11 13 13 13 14 14 13 11 9 8 7 6 5 4 2 4 6 8 9 9 9 8 8 10 12
25 23 22 21 21 20 19 19 18 17 16 15 14 14 13 11 8 7 7 6 5 5 7 9 11 11 13 14 15 17 18 18 17 17 18 20 23 24 26 26 27 26 25 25 24 21 19 18 19 20 21 20 19 19 19 17 16 15 14 14 13 12 12 11 11 11 10 10 9 9 8 6 4 2 3 6 8 8 7 6 5 6 9 12 13
22 21 20 19 17 17 17 18 18 17 16 16 16 15 14 14 14 13 13 12 10 8 8 10 10 11 13 14 16 18 20 20 20 19 19 21 22 24 24 24 24 23 22 22 22 21 20 19 19 21 22 22 21 21 19 18 18 18 18 16 14 12 11 10 10 10 9 9 9 8 6 4 3 4 5 6 6 5 5 5 5 7 10 11 11
19 19 18 17 16 15 15 15 16 15 14 15 15 15 15 14 14 15 16 16 16 14 13 13 14 14 15 16 17 19 20 21 22 22 22 23 25 25 26 25 23 21 19 17 16 17 18 19 20 21 22 22 23 21 18 17 18 19 18 17 15 13 12 12 12 12 11 9 8 6 4 3 3 3 4 5 5 5 5 6 5 7 8 8 9
16 15 15 14 14 14 14 14 15 15 15 15 15 15 15 15 15 15 16 16 17 17 17 17 17 17 18 20 21 21 21 21 22 23 25 25 26 28 28 28 26 23 21 20 18 18 19 21 21 21 21 23 24 23 19 18 19 19 18 17 16 14 14 14 13 12 10 9 7 4 2 2 3 4 5 5 5 6 6 6 5 5 5 6 7
13 13 12 13 13 13 14 14 15 16 16 16 16 16 16 16 17 17 17 18 18 19 19 19 20 19 19 20 21 22 22 22 22 23 25 26 28 30 30 29 28 26 26 25 24 23 23 25 25 23 22 23 25 25 22 20 19 19 19 18 16 14 13 13 12 10 8 6 3 1 2 3 4 4 4 5 7 8 8 7 7 6 5 6 8
12 13 13 14 16 16 16 16 16 17 18 18 18 18 17 18 18 18 19 19 20 21 21 22 23 24 23 23 22 22 22 23 23 23 25 26 28 30 32 31 30 28 25 24 24 24 26 27 25 24 23 24 24 24 22 20 19 20 21 19 15 13 13 13 12 9 5 3 3 3 3 3 3 3 4 5 7 7 5 4 5 6 6 8 9
12 14 15 16 17 18 18 18 18 19 20 20 20 20 20 20 20 20 21 21 22 23 23 23 24 25 26 27 26 26 25 26 27 26 26 27 29 31 33 34 32 29 26 24 23 24 25 25 23 22 22 21 19 18 16 15 16 19 20 17 14 12 13 13 10 7 4 3 3 3 2 2 2 1 1 1 1 1 3 4 4 4 4 5 5
13 14 15 16 17 18 18 19 19 19 19 19 20 20 20 20 20 21 22 23 23 24 24 24 24 25 26 27 28 28 28 28 28 28 27 27 28 30 33 35 34 33 31 29 28 25 24 23 23 23 23 20 17 16 14 12 14 17 17 14 14 14 13 11 8 5 3 3 3 1 1 3 5 7 7 6 5 5 4 4 3 1 1 3 5
14 15 16 17 18 18 19 20 20 20 20 20 20 21 21 21 21 21 22 22 23 24 25 24 25 25 27 28 29 30 30 30 31 31 30 29 30 31 33 34 35 35 33 32 30 28 27 26 25 24 22 20 17 18 17 15 14 15 15 14 14 12 9 7 5 4 4 4 3 2 2 5 6 7 7 5 4 4 3 3 3 3 4 6 8
16 17 18 18 19 20 20 21 21 21 20 20 20 21 21 21 22 23 23 22 21 21 22 22 22 22 24 25 26 27 29 30 33 34 34 33 32 33 35 35 33 32 32 31 31 30 30 30 28 23 20 18 18 19 20 20 17 16 15 14 12 10 9 8 7 7 6 5 5 6 7 6 5 4 4 3 3 3 4 4 5 6 7 8 10
18 19 20 20 20 21 21 21 21 21 20 19 19 19 20 21 22 22 22 21 20 19 19 20 22 24 24 24 25 27 28 27 28 32 34 34 33 34 35 34 32 32 32 31 31 31 32 32 30 26 23 23 24 23 22 21 18 16 14 13 12 12 12 11 11 10 9 8 8 8 7 5 3 3 2 2 2 3 4 5 6 8 10 12 13
19 19 19 19 20 20 20 21 21 21 21 21 21 21 21 22 22 22 22 22 22 22 22 22 23 24 25 26 27 28 27 25 22 25 27 30 33 34 31 26 27 31 32 31 32 32 33 32 31 29 28 27 26 25 23 21 18 15 14 13 13 14 13 12 12 11 9 9 9 7 4 2 1 1 1 2 3 4 6 8 10 11 12 13 13
17 17 17 18 18 18 19 19 20 21 21 22 22 23 23 23 24 24 23 22 23 24 24 24 23 23 25 27 27 27 25 22 18 18 21 23 27 30 27 22 25 29 31 32 34 35 33 31 30 30 30 29 27 24 22 20 18 16 16 16 15 15 13 11 10 10 9 9 8 5 2 1 0 1 2 3 4 6 9 11 11 11 12 12 13
14 15 16 15 15 15 16 17 19 21 22 23 23 23 22 22 23 24 24 22 21 23 24 25 25 25 26 27 26 25 24 21 17 16 17 19 23 25 24 25 30 32 31 31 31 32 33 33 33 33 31 30 28 25 22 20 20 19 19 18 17 14 12 10 11 11 10 8 6 3 1 1 1 1 2 3 5 8 10 11 9 9 10 10 11
13 14 14 14 14 15 17 18 20 20 21 23 24 24 23 22 22 23 24 22 21 21 23 24 25 25 26 27 25 23 22 20 18 17 16 17 20 23 25 29 33 34 33 31 27 26 29 31 31 31 32 30 28 27 26 25 25 22 20 18 16 14 13 12 12 12 9 6 5 4 3 1 1 1 0 3 5 7 8 7 7 8 9 10 11
12 12 14 15 15 16 17 18 18 18 19 20 21 22 23 22 22 22 22 23 23 24 25 24 22 22 24 27 25 22 23 21 18 18 18 16 17 20 23 28 32 34 35 33 26 23 25 25 24 24 28 29 29 29 30 28 25 22 20 19 17 16 16 14 13 11 8 6 6 5 3 2 3 3 1 4 5 5 6 6 8 9 10 11 11
9 9 11 13 13 15 16 17 18 18 19 20 20 20 19 20 22 23 23 23 24 26 27 27 24 21 22 24 24 21 23 23 21 20 20 17 16 18 20 23 27 30 34 34 31 27 26 26 24 22 22 25 28 29 29 27 25 22 22 21 19 17 16 15 13 9 7 6 7 6 5 4 3 1 3 3 3 4 6 8 9 10 10 9 8
8 8 9 11 12 14 15 16 17 18 18 19 21 20 19 18 20 22 23 24 26 28 28 26 23 21 22 24 23 21 20 22 23 24 22 18 16 19 22 23 24 26 27 29 33 35 34 31 29 27 24 25 27 28 27 26 25 23 21 21 20 17 15 13 10 7 7 8 7 6 5 3 2 3 2 2 3 5 6 7 7 7 7 8 8
7 7 9 10 11 13 14 15 16 18 19 19 20 20 20 19 18 18 20 22 26 30 29 23 20 22 25 26 26 22 19 18 19 22 23 20 19 21 22 21 21 25 23 17 19 29 36 36 33 31 30 28 27 26 26 25 23 21 20 20 19 17 14 13 11 10 10 9 8 6 5 2 2 2 2 2 4 4 4 4 5 6 7 8 10
5 7 8 9 10 11 13 14 14 16 17 18 18 19 19 18 17 17 18 19 21 25 28 26 25 25 26 27 26 22 18 17 16 19 22 22 21 22 21 20 22 25 23 16 10 15 26 33 33 31 31 30 27 26 27 26 23 21 22 22 21 19 17 16 14 11 10 8 8 6 4 1 2 3 4 4 4 5 5 5 6 7 8 8 10
7 8 8 8 10 11 12 11 12 13 14 16 17 16 15 15 16 17 18 19 20 22 26 28 28 26 25 24 22 19 16 15 14 16 18 19 21 22 22 25 25 22 20 19 15 13 17 25 28 28 28 28 28 27 27 26 23 22 23 25 24 21 19 16 12 10 9 8 8 6 5 4 4 4 4 4 6 6 6 7 7 8 8 9 11
8 8 7 9 12 12 12 11 11 11 13 13 13 13 13 14 14 15 17 20 22 22 24 26 26 26 24 20 16 13 11 9 8 9 11 16 20 22 23 26 26 21 16 16 18 18 16 17 20 22 25 28 28 28 26 24 22 22 24 26 23 20 16 13 10 10 11 10 8 8 8 7 6 5 5 6 6 6 6 7 7 7 9 11 12
8 8 8 11 13 13 12 12 12 12 12 11 12 12 13 14 14 16 19 21 21 22 24 25 24 24 20 14 10 7 4 2 3 6 12 17 19 22 24 25 24 21 17 14 17 20 19 18 19 24 27 27 26 25 23 22 21 22 23 23 20 16 14 12 12 12 11 9 9 8 6 6 7 7 5 5 6 7 7 7 7 8 10 12 12
9 8 9 12 14 13 12 13 13 13 13 12 12 13 13 14 16 18 19 20 21 22 22 19 16 14 11 9 7 3 4 8 9 11 13 14 15 20 23 23 22 20 18 16 16 19 21 23 25 27 26 25 24 23 22 22 22 22 21 19 16 14 13 13 14 13 10 9 8 5 4 5 6 6 5 5 6 6 6 6 7 8 10 12 12
10 9 8 11 12 12 13 14 14 13 12 12 12 12 13 15 16 18 20 21 21 19 14 10 10 8 4 6 7 5 7 10 11 11 11 12 15 18 21 22 21 20 20 21 20 21 23 25 26 25 24 23 23 23 22 22 21 19 17 16 15 14 13 14 14 12 10 8 6 4 5 7 7 5 4 4 6 6 6 6 7 9 10 11 12
11 9 7 9 11 12 13 15 15 14 13 13 12 12 13 15 17 19 20 18 13 8 6 8 9 7 4 4 6 7 7 7 8 10 11 13 15 18 21 21 17 16 19 21 21 22 24 24 23 22 22 21 21 22 21 19 17 16 16 17 18 19 17 16 15 12 10 8 6 7 8 9 7 6 6 6 6 7 6 7 9 11 10 9 10
10 8 7 9 12 13 13 16 18 16 14 14 13 13 14 16 17 17 14 8 4 4 5 6 7 7 6 4 3 6 7 6 7 9 10 12 14 17 19 18 14 15 17 15 14 19 23 22 21 22 22 21 21 20 20 19 18 19 20 21 21 21 19 16 14 10 8 7 7 8 8 8 7 7 7 6 6 7 9 11 11 8 7 8 10
8 8 7 8 11 12 13 17 19 18 15 14 13 13 15 14 12 9 6 5 7 7 8 8 9 9 9 6 3 3 5 6 8 9 11 13 13 13 15 15 15 15 14 10 11 20 24 23 23 25 24 21 20 19 20 21 21 21 22 21 19 17 15 13 11 9 7 7 8 8 7 8 8 8 7 6 5 8 10 10 8 6 6 9 12
9 9 7 7 10 11 12 16 20 20 18 15 14 15 15 10 5 6 7 8 9 10 11 11 10 9 9 8 8 8 8 8 8 9 11 13 14 14 14 14 13 13 13 13 19 26 28 27 27 27 24 21 20 20 21 21 19 18 18 16 14 13 11 10 9 9 7 7 7 6 7 9 9 8 7 6 5 9 9 7 7 6 7 10 12
10 9 7 7 10 11 12 15 18 18 18 17 18 20 19 12 8 9 10 10 10 10 11 11 11 10 11 13 15 16 14 12 11 11 12 15 16 17 18 17 18 19 22 26 28 29 28 28 28 27 24 23 22 21 20 18 16 14 12 10 9 9 9 8 9 9 7 6 6 5 6 9 10 9 7 6 6 7 6 5 6 8 9 11 12
9 9 8 8 9 10 12 14 15 16 16 16 17 20 21 17 12 12 12 12 12 12 13 13 13 14 16 18 20 21 21 21 19 17 17 18 20 21 22 23 25 27 28 28 27 26 26 27 25 24 23 21 20 18 17 15 13 12 11 9 9 9 9 9 9 9 8 7 7 6 8 10 10 8 7 6 5 4 5 6 8 11 12 12 10
8 10 11 11 9 9 11 13 14 14 14 14 14 16 19 17 15 15 14 13 13 14 14 15 15 16 17 19 20 22 24 26 26 26 25 24 24 24 24 25 26 27 27 26 25 24 24 22 20 18 18 17 16 16 16 15 13 12 12 11 11 10 9 10 10 9 8 8 8 9 10 10 9 8 7 5 4 6 8 9 11 13 12 9 8
7 9 11 12 11 9 10 13 14 14 14 13 13 14 15 15 15 15 15 15 15 16 16 16 16 17 18 19 21 22 24 25 26 26 27 26 26 26 25 25 25 24 24 24 23 22 20 18 17 16 16 16 15 15 15 14 13 12 11 11 11 10 10 10 10 9 9 9 9 9 10 9 8 7 6 5 6 8 9 11 12 11 8 8 8
6 8 9 12 12 9 9 11 13 14 14 14 14 14 14 15 16 17 17 17 16 17 17 17 17 18 19 21 22 22 23 23 23 23 23 23 23 24 24 24 24 23 23 22 21 20 19 18 17 17 17 16 15 14 13 12 11 11 10 10 11 11 10 10 10 9 10 10 9 9 9 9 8 6 5 6 7 7 9 12 11 9 9 9 9
6 8 9 11 12 10 8 9 12 13 14 14 14 16 16 17 18 19 19 18 18 18 18 18 18 19 20 22 22 22 22 22 21 21 20 20 20 20 20 20 20 20 20 20 19 18 17 16 16 15 15 14 13 13 12 11 10 10 10 10 11 11 11 11 10 10 11 11 11 11 11 9 8 6 7 7 7 7 9 11 8 7 8 10 9
7 9 9 10 12 11 9 9 11 12 12 12 13 15 17 18 19 19 19 19 18 18 18 19 19 20 20 21 21 21 21 21 20 20 19 19 18 18 18 18 17 18 18 18 17 16 15 14 13 12 12 12 12 11 10 9 9 9 9 10 10 11 12 11 11 12 12 12 12 11 10 8 7 7 8 8 7 8 11 11 7 3 6 8 9
Wind_Direction
161 160 161 161 160 160 159 158 161 164 166 166 162 157 157 159 157 155 155 155 154 150 147 146 146 149 150 147 141 138 137 141 146 146 142 142 143 143 144 141 132 127 126 126 129 126 121 118 115 114 112 109 110 111 108 99 102 116 112 115 135 149 155 148 141 145 154 161 164 161 166 187 208 206 189 5 15 35 345 301 296 306 318 358 8
161 161 161 162 162 162 162 163 165 166 168 169 166 162 160 160 159 157 153 151 151 151 151 150 151 152 151 147 145 142 140 142 146 148 146 147 149 148 146 142 137 135 133 133 135 132 127 124 122 120 116 117 121 115 106 101 120 132 125 124 133 144 160 158 152 153 162 172 175 169 168 188 207 209 226 274 299 56 6 320 303 294 304 3 18
161 164 165 165 165 162 161 163 165 166 169 168 166 164 164 162 160 157 153 152 153 155 157 155 156 159 154 148 147 146 146 148 150 151 152 153 156 155 151 148 146 145 141 140 143 143 137 132 131 131 128 125 121 109 105 112 134 144 141 136 136 135 145 160 162 162 166 174 182 185 184 190 205 217 237 251 231 113 35 24 14 21 43 34 32
165 167 167 165 163 159 157 160 163 165 167 166 165 166 166 165 163 160 158 158 157 158 161 163 166 165 156 151 150 149 149 151 151 152 153 157 162 159 155 153 150 146 142 140 145 150 148 146 144 140 137 134 126 116 114 114 122 137 148 159 156 137 126 141 162 169 173 178 186 198 205 202 202 216 238 245 238 237 345 58 109 103 69 40 32
166 167 165 161 157 153 153 159 163 164 166 166 166 166 165 164 164 163 160 158 158 160 163 168 172 166 158 154 154 152 151 149 151 156 152 146 154 156 155 154 148 147 151 150 151 155 152 154 155 148 143 140 129 117 116 116 110 108 120 145 161 152 128 123 145 167 181 186 190 202 214 212 208 215 228 231 227 225 196 137 167 176 238 356 10
114 137 151 152 153 152 151 155 159 162 164 163 161 162 162 160 158 157 155 154 162 170 168 169 172 167 163 161 157 155 155 153 155 160 154 144 152 158 157 156 155 160 164 163 162 162 156 153 154 154 154 154 152 141 131 134 125 98 98 122 142 148 142 134 141 159 175 184 188 196 206 211 216 223 216 193 193 194 176 152 174 215 285 321 335
86 79 85 97 127 149 153 153 157 162 164 164 163 158 156 158 160 166 165 163 175 178 171 173 176 171 169 168 164 161 160 160 161 163 162 155 155 161 162 162 167 170 169 168 167 167 169 167 163 165 169 171 178 180 170 169 171 136 106 129 148 154 155 168 192 179 171 182 196 199 205 214 224 229 225 194 176 184 194 214 247 286 310 316 321
116 121 128 118 82 102 158 158 159 163 163 164 163 158 157 161 167 178 181 177 181 179 174 180 183 179 178 175 172 170 166 168 170 168 168 168 166 167 170 172 171 167 167 169 170 171 177 177 173 175 179 183 190 196 198 197 202 213 197 168 184 201 205 208 211 198 178 177 220 230 234 241 237 231 229 217 195 198 225 248 270 298 304 306 319
106 121 135 139 137 133 117 139 157 166 169 170 170 166 167 170 174 184 191 187 188 186 184 188 188 186 186 183 183 182 175 175 179 176 172 175 177 179 181 182 177 172 174 177 178 182 185 183 183 184 185 189 196 200 205 209 211 218 228 230 230 227 228 234 234 231 227 230 262 287 299 297 252 228 220 209 194 193 213 235 255 286 293 298 315
103 116 114 105 115 133 133 105 88 146 166 175 177 173 172 179 186 194 201 201 196 192 189 190 190 193 195 194 196 196 190 185 187 188 187 186 187 188 188 189 187 186 188 188 188 191 195 195 195 195 194 197 203 206 209 213 213 212 218 230 240 239 235 236 240 246 248 249 271 290 285 103 129 194 179 156 157 163 160 184 280 316 314 315 320
95 101 99 95 103 117 123 133 149 93 32 160 158 157 165 176 191 201 202 198 192 190 191 193 195 201 206 210 211 207 202 199 198 201 203 199 197 198 196 194 194 196 197 197 195 194 198 202 201 201 204 206 209 214 221 225 224 220 219 226 235 240 242 241 240 241 239 231 237 257 214 153 131 143 142 134 138 135 88 35 3 349 341 338 330
83 81 76 84 103 105 101 116 146 166 281 280 139 150 171 180 194 205 193 164 156 179 194 203 210 214 213 215 218 218 211 208 207 209 209 207 206 207 204 200 200 204 205 206 205 202 202 204 204 206 210 210 214 224 232 234 232 229 227 229 235 241 244 244 244 240 231 219 208 200 182 158 141 143 147 144 136 61 9 358 355 349 344 340 326
69 65 59 58 69 86 93 95 115 153 185 193 132 135 160 182 208 224 226 226 231 223 211 214 224 234 232 223 222 224 222 215 213 214 213 212 211 210 208 205 206 209 210 212 213 211 209 208 208 209 211 215 227 240 243 239 234 230 230 234 241 245 243 242 242 237 226 212 200 187 178 175 169 159 154 161 318 340 339 340 342 337 332 328 319
60 57 54 53 53 55 59 61 63 79 111 106 77 66 68 118 191 225 252 259 258 261 256 243 239 243 249 247 238 235 235 228 223 220 217 215 214 212 210 209 210 212 213 213 214 214 214 212 211 213 219 228 240 245 242 236 231 231 234 240 245 243 238 234 231 226 217 211 208 198 187 188 193 191 200 298 323 334 338 336 331 327 326 325 323
51 49 48 47 46 44 44 46 45 42 42 49 48 38 34 39 29 296 298 296 278 267 267 265 259 254 254 256 253 248 246 244 240 233 225 218 214 212 212 212 214 216 215 213 211 210 213 218 223 229 237 243 246 244 238 233 234 236 232 229 232 234 232 228 225 224 222 222 224 212 194 189 192 203 264 315 330 337 338 331 324 325 333 337 338
41 39 38 36 35 33 33 32 28 24 26 31 34 33 31 28 18 353 332 323 300 267 262 264 263 262 260 259 260 258 254 253 251 247 239 228 219 214 213 213 214 216 217 215 214 216 223 232 239 245 248 248 246 241 235 233 236 232 220 215 220 222 219 215 213 215 217 215 211 201 190 189 197 235 300 324 334 337 335 330 331 344 351 352 351
37 33 30 28 25 22 21 19 15 13 14 15 15 15 13 12 10 3 353 346 334 306 285 280 280 279 273 269 269 266 261 258 256 253 246 237 228 222 217 214 212 212 214 217 221 226 231 234 240 245 246 245 242 236 232 233 229 219 210 206 206 205 200 194 187 186 187 185 186 189 195 214 258 302 326 337 341 348 358 1 359 359 359 359 354
33 30 26 23 20 17 14 12 8 7 7 7 3 359 356 353 351 350 347 344 340 332 320 307 295 285 277 273 271 268 265 263 260 257 251 244 237 231 225 220 217 212 210 216 223 228 231 231 234 237 239 239 234 227 225 224 215 209 206 199 191 189 189 186 180 177 178 180 185 197 218 256 297 343 8 13 11 10 10 5 356 354 357 356 346
24 22 18 14 11 8 6 5 3 2 0 358 353 348 345 340 335 332 331 329 326 324 320 312 301 289 280 273 269 266 265 265 262 260 256 250 244 239 233 230 228 224 222 227 232 235 237 239 238 237 238 237 227 217 215 214 209 210 209 197 188 189 192 190 187 185 183 186 191 199 227 314 11 33 33 20 5 349 342 339 331 332 340 343 343
15 14 12 6 1 357 357 356 355 354 352 349 347 344 341 338 334 329 325 321 315 310 308 307 303 297 292 284 274 266 264 265 263 260 257 253 249 246 242 237 234 233 236 240 241 239 238 239 240 236 230 221 213 208 207 209 209 211 208 199 194 193 187 181 181 180 175 171 165 114 46 35 33 27 2 336 324 316 315 317 312 303 295 306 327
18 13 9 6 3 2 2 0 356 352 348 344 340 337 336 336 335 333 328 323 316 309 303 301 299 296 295 294 288 277 269 267 266 263 258 255 251 248 246 242 237 235 236 238 237 232 230 232 234 230 219 212 209 208 207 211 215 209 203 202 201 189 173 167 165 161 152 127 95 76 57 29 2 343 318 297 291 295 308 328 332 323 314 314 325
10 3 1 0 360 0 360 358 355 351 350 349 343 338 334 329 327 328 328 326 323 318 312 306 302 297 294 293 292 287 279 272 269 264 259 256 253 250 247 244 241 236 232 232 230 225 223 224 223 215 206 201 198 194 193 201 203 194 188 191 191 173 159 157 154 149 142 120 111 110 67 13 359 30 82 166 201 16 29 31 19 359 338 330 343
358 355 357 356 356 356 354 352 351 349 348 347 343 339 337 332 329 328 326 325 324 323 321 318 311 305 301 298 295 293 286 275 266 261 259 257 256 254 250 246 242 239 236 236 233 223 214 212 209 200 192 185 177 170 170 170 167 164 161 161 161 156 154 155 154 148 150 154 159 166 58 75 99 102 98 96 89 77 68 62 58 51 356 337 339
0 0 1 357 354 353 349 347 346 345 344 341 336 334 335 333 331 329 325 322 321 321 323 324 318 310 306 303 300 297 291 280 268 260 258 257 255 254 254 248 241 238 238 235 229 218 209 202 194 184 179 176 172 174 182 182 170 160 158 157 157 160 166 171 169 166 177 194 203 181 119 122 121 104 89 82 68 52 39 23 4 345 334 329 326
2 0 358 354 350 347 344 342 341 339 339 338 335 332 330 328 327 327 322 316 316 318 323 329 329 324 319 317 314 312 307 294 277 264 257 255 252 250 252 250 242 234 230 225 219 215 209 198 187 181 181 180 179 184 190 193 189 180 175 171 166 164 165 162 161 168 175 177 164 143 130 128 120 87 66 49 19 6 355 343 336 333 331 326 323
360 355 352 348 345 344 341 339 337 335 334 335 335 333 332 329 330 331 328 322 322 325 329 333 334 331 328 326 323 324 325 313 288 268 255 249 245 245 247 247 239 228 222 217 212 209 204 196 193 197 199 193 189 190 187 182 180 178 174 171 168 165 164 163 165 170 167 155 149 144 131 117 98 73 55 11 359 11 5 349 342 340 337 332 330
356 353 350 347 344 343 341 337 334 333 332 331 329 328 329 330 331 333 334 332 330 330 330 331 331 327 324 321 317 318 323 319 296 271 256 247 243 242 242 236 224 215 209 204 200 197 195 194 194 196 194 188 186 186 180 175 173 169 165 169 173 172 170 171 175 176 170 161 156 149 135 120 77 52 27 1 14 18 1 349 346 346 345 345 344
356 351 346 342 339 337 336 335 333 333 332 330 329 326 325 327 327 328 329 330 328 327 327 326 325 323 319 316 311 309 313 314 299 277 267 259 252 245 238 222 208 204 199 195 193 191 188 186 184 182 182 181 180 179 177 176 174 170 169 171 172 170 171 176 182 182 177 171 166 161 168 215 344 10 354 356 9 3 350 347 351 355 353 352 348
350 346 341 338 334 332 334 336 334 332 328 326 326 324 322 322 321 320 321 323 323 325 327 326 325 323 320 315 307 298 296 302 302 290 277 269 261 253 238 215 202 199 197 195 192 186 179 175 174 174 175 176 174 172 170 167 165 166 168 167 165 167 171 174 175 174 174 177 179 181 181 153 70 334 313 341 356 352 347 349 355 356 354 353 351
345 341 337 335 335 337 339 338 333 328 323 321 319 316 314 314 315 314 316 315 312 313 319 323 326 324 320 317 308 290 282 290 299 299 295 282 267 257 240 216 202 197 197 195 188 178 171 168 168 171 172 172 170 167 164 161 159 159 163 164 162 163 165 168 171 170 171 174 168 153 143 134 139 178 272 8 4 358 356 1 5 3 1 359 352
343 334 328 326 329 332 330 324 317 314 313 313 312 310 309 310 310 309 310 309 306 305 307 312 318 320 318 319 313 291 277 280 287 292 299 293 271 254 237 216 203 202 203 198 184 171 168 166 167 172 174 172 170 167 162 159 157 156 160 165 167 165 163 165 170 171 168 163 155 147 144 150 149 140 59 14 8 9 11 10 5 360 354 347 340
323 324 323 317 313 313 311 307 304 304 303 304 304 305 307 310 311 311 310 308 305 305 305 305 307 313 319 323 320 299 278 276 282 288 291 286 266 251 237 221 213 214 212 200 183 174 174 173 174 178 177 172 170 166 161 158 157 156 157 159 162 165 165 165 167 168 163 154 153 156 160 156 141 75 3 357 357 0 4 2 358 354 348 342 339
302 311 318 311 306 306 307 308 308 306 302 300 298 298 300 304 307 309 313 312 308 306 307 306 307 313 321 325 324 312 289 276 278 281 280 274 259 243 233 226 219 212 203 191 181 178 177 177 178 180 179 176 172 167 163 162 164 163 162 160 160 162 166 167 168 165 154 146 147 153 157 145 65 8 355 355 358 360 4 6 3 359 356 354 351
309 316 318 314 313 314 314 316 317 315 311 306 298 292 291 294 297 303 312 317 314 312 315 319 319 319 320 321 322 318 304 285 275 272 270 266 253 237 227 217 202 189 185 186 185 178 174 174 176 178 178 177 174 171 169 169 170 168 166 165 164 164 164 163 161 160 157 155 152 146 142 122 40 41 37 11 11 21 38 44 33 18 8 1 349
335 332 329 327 325 322 322 325 325 322 320 316 309 299 289 285 291 303 311 313 310 309 312 318 321 320 319 321 321 318 308 292 275 266 262 254 238 223 207 188 177 177 177 178 182 176 170 171 175 178 177 175 177 179 178 176 174 171 168 165 162 160 158 156 156 159 160 160 156 145 125 80 56 49 26 19 46 75 76 56 38 25 13 355 338
351 340 335 336 334 330 332 333 326 322 327 329 325 318 305 294 297 307 309 306 302 301 304 311 316 317 317 317 316 312 304 294 278 265 255 239 223 210 191 170 163 166 168 165 164 171 175 177 179 181 178 175 177 178 175 170 166 165 164 161 157 153 152 151 149 146 140 136 139 136 114 96 88 67 56 77 92 83 58 40 37 30 10 345 334
356 346 339 340 341 341 343 337 324 323 333 337 334 329 321 312 309 308 305 302 302 303 307 312 316 317 315 310 304 301 298 291 281 260 227 205 198 192 179 164 157 155 154 156 158 163 176 188 188 180 173 170 168 165 161 159 156 154 155 156 154 150 148 144 136 133 129 122 119 120 112 97 75 57 67 84 74 48 35 37 35 17 351 339 336
354 350 345 345 348 351 353 347 336 330 332 334 330 325 318 313 310 306 304 303 303 306 311 314 316 316 310 298 290 293 280 217 171 161 166 170 173 170 162 156 151 146 144 149 158 165 178 192 187 173 165 163 160 157 157 159 159 155 151 150 148 144 141 135 129 129 127 117 111 110 98 69 53 48 47 50 45 36 32 27 10 347 338 340 341
0 356 353 350 349 352 358 360 354 344 337 332 326 321 316 312 310 308 308 307 309 312 317 321 323 319 300 268 258 248 152 139 134 138 148 155 157 156 153 149 143 136 131 134 150 164 171 172 167 163 160 158 157 158 160 160 157 152 147 143 140 139 142 143 139 136 132 126 122 106 65 60 72 64 41 42 54 46 29 14 358 343 340 343 344
4 1 360 355 351 351 358 359 353 345 341 336 325 316 314 314 312 311 311 312 314 319 327 341 351 350 312 259 251 216 158 139 136 140 143 143 144 146 145 141 139 137 133 132 139 149 155 156 156 158 158 157 158 159 158 153 147 144 144 143 140 141 149 152 147 142 140 136 127 98 83 91 91 76 66 78 73 52 34 21 1 346 342 342 343
360 360 5 1 357 360 2 356 346 338 336 336 330 322 319 319 318 316 316 318 325 335 339 344 354 6 4 303 264 222 188 163 151 149 145 144 147 149 148 145 145 146 141 135 135 142 148 151 154 156 156 155 155 153 149 144 141 141 146 145 139 137 141 143 141 141 141 133 117 101 99 97 87 81 92 92 70 46 25 358 340 337 342 350 348
359 5 17 13 8 7 3 356 352 348 343 340 340 336 332 330 329 329 329 336 6 15 349 354 20 42 42 11 286 223 214 213 201 182 168 162 158 154 154 157 158 150 144 137 137 147 152 153 153 155 154 152 150 145 142 142 142 139 139 138 135 133 134 135 137 140 140 130 118 107 99 97 92 86 88 84 60 28 358 341 337 344 358 2 354
7 17 30 26 14 7 1 360 4 7 5 357 350 342 340 341 346 357 20 59 66 50 45 54 57 52 47 47 68 165 182 189 195 195 191 187 181 170 166 170 170 163 162 160 149 148 149 148 148 150 151 149 147 144 143 145 145 139 134 133 133 134 134 134 136 141 141 136 130 118 107 109 104 88 83 84 46 6 352 352 1 8 358 349 349
19 25 37 30 16 9 9 13 18 22 23 20 10 1 360 9 46 85 81 72 63 60 65 67 57 46 49 64 85 106 125 144 160 167 170 176 176 166 157 156 158 161 161 151 140 139 140 138 138 140 140 139 138 137 138 141 141 137 134 133 133 134 135 136 137 136 134 136 139 130 119 119 115 103 97 86 32 4 8 25 25 5 348 346 349
30 32 37 29 20 17 18 21 25 30 33 32 28 25 28 43 88 108 92 78 75 77 78 76 70 67 73 80 87 93 101 112 127 141 149 152 149 142 135 132 133 134 133 129 129 130 130 129 128 127 126 126 127 128 129 130 128 125 124 128 132 135 135 135 133 128 120 117 121 114 112 123 127 119 102 81 48 25 26 25 1 343 344 350 354
39 40 41 33 24 21 22 23 26 31 34 32 29 31 38 53 84 105 97 85 82 82 82 83 84 85 87 89 91 92 93 95 100 108 119 129 132 130 127 125 125 125 125 125 125 125 124 123 122 123 122 121 121 121 119 117 116 113 110 110 115 119 121 123 124 122 113 104 97 94 107 123 125 111 88 81 70 35 9 351 335 331 335 345 1
40 45 47 41 35 32 31 32 34 37 39 37 33 34 41 55 80 99 99 89 86 89 89 88 92 95 95 95 97 97 96 94 93 94 99 108 116 121 123 122 120 119 119 122 123 124 124 123 123 124 125 123 120 116 112 109 109 108 103 98 97 101 110 118 121 118 107 95 90 96 110 118 113 100 92 85 48 13 360 350 342 340 342 355 17
48 55 53 44 44 45 41 40 43 45 45 44 41 41 46 56 73 92 99 95 93 97 98 95 95 98 98 97 97 99 100 99 97 96 97 100 106 112 117 119 119 118 118 118 118 118 120 122 124 126 126 124 119 114 110 107 105 103 101 97 93 94 104 115 116 109 98 89 90 103 112 111 105 102 94 56 23 12 3 356 359 9 24 32 27
76 74 61 49 49 51 45 48 54 55 54 53 51 51 55 60 72 89 101 102 99 101 104 104 103 101 100 99 99 99 100 101 100 99 99 100 104 110 115 117 118 118 118 117 119 121 123 126 127 126 124 121 117 113 110 106 99 96 99 99 91 87 96 108 110 103 94 89 90 99 104 101 97 92 65 35 24 16 8 7 17 39 52 38 18
109 92 76 59 55 58 61 64 64 63 64 64 59 58 63 67 76 91 103 106 105 106 108 109 109 106 104 103 103 102 102 103 101 99 99 100 102 107 112 115 117 118 117 118 122 127 130 132 132 129 125 122 117 113 109 103 94 91 96 97 90 84 89 100 105 100 94 92 93 96 99 96 87 66 44 35 28 16 14 18 29 53 53 33 13
118 109 99 73 61 66 79 83 74 66 66 69 68 68 71 74 81 93 102 105 107 111 112 112 112 110 107 108 108 107 106 106 103 101 100 100 100 103 106 109 112 116 119 122 125 128 131 133 134 132 129 123 115 108 102 94 88 87 92 96 94 86 84 92 100 101 99 98 96 94 93 87 70 50 40 37 29 18 17 21 26 59 60 39 16